[[{"header":{"parameterUnit":"m.s-1","parameterCategory":1,"la1":30.2991,"la2":30.254,"lo1":-89.0895,"lo2":-89.0444,"dy":0.0017,"dx":0.0017,"nx":28,"ny":28,"refTime":"2025-06-02T09:00:00:Z","depth":0,"parameterNumber":2,"parameterNumberName":"U-component_of_WINDS"},"data":[0,0,0,0,0,0,0,0,0,0,0,0,0,0,0,0,0,0,0,0,0,0,0,0,0,0,0,0,0,0,0,0,0,0,0,0,0,0,0,0,0,0,0,0,0,0,0,0,0,0,0,0,0,0,0,0,0,0,-2.8718,-2.8719,0,-2.8732,-2.8732,-2.8733,-2.8679,-2.8677,-2.8676,-2.8674,-2.8688,-2.869,-2.8692,0,0,0,0,0,0,0,0,0,0,0,0,0,-2.8645,-2.8647,-2.8718,-2.8719,-2.8719,-2.8732,-2.8732,-2.8733,-2.8679,-2.8677,-2.8675,-2.8673,-2.8687,-2.8689,-2.8692,0,0,0,0,0,0,0,0,0,0,0,0,0,-2.867,-2.8647,-2.8718,-2.8694,-2.8692,-2.8732,-2.8732,-2.8733,-2.8679,-2.8677,-2.8675,-2.8672,-2.8687,-2.8689,-2.8692,-2.8757,0,0,-2.87,-2.8702,0,0,0,0,0,0,0,0,-2.8668,-2.8673,-2.8697,-2.8695,-2.8693,-2.8701,-2.8712,-2.8741,-2.868,-2.8684,-2.8674,-2.8671,-2.8694,-2.8696,-2.8704,-2.8758,-2.8758,-2.8701,-2.8702,-2.8704,-2.8704,0,0,0,0,0,0,0,-2.8667,-2.8672,-2.8724,-2.8698,-2.8695,-2.8682,-2.8683,-2.8717,-2.8702,-2.8683,-2.868,-2.8682,-2.8693,-2.8702,-2.8704,-2.8758,-2.8701,-2.8703,-2.8705,-2.8706,-2.8865,-2.8867,0,0,0,0,0,0,-2.8668,-2.8671,-2.8723,-2.8724,-2.8675,-2.8685,-2.8686,-2.8701,-2.8702,-2.87,-2.8684,-2.8679,-2.8698,-2.8701,-2.8704,-2.8779,-2.8704,-2.8706,-2.8708,-2.8862,-2.8865,-2.8868,0,0,0,0,0,0,-2.8667,-2.8674,-2.8723,-2.8696,-2.8702,-2.8689,-2.8706,-2.8703,-2.8711,-2.8702,-2.8699,-2.8696,-2.8696,-2.87,-2.8744,-2.8779,-2.8707,-2.871,-2.8859,-2.8863,-2.8867,-2.893,0,0,0,0,0,0,-2.8665,-2.8673,-2.8698,-2.8697,-2.8703,-2.8763,-2.8708,-2.8705,-2.8716,-2.871,-2.8712,-2.871,-2.8695,-2.874,-2.8747,-2.8781,-2.8712,-2.8856,-2.8861,-2.8865,-2.8925,-2.8936,-2.8945,0,0,0,0,0,-2.8663,-2.8716,-2.87,-2.8706,-2.8734,-2.8765,-2.8768,-2.8749,-2.8719,-2.8744,-2.8738,-2.871,-2.8775,-2.8745,-2.8752,-2.8788,-2.8854,-2.8859,-2.8865,-2.8921,-2.8934,-2.8945,0,0,0,0,0,0,-2.8721,-2.8715,-2.8697,-2.8752,-2.8759,-2.8756,-2.8786,-2.8764,-2.878,-2.8773,-2.8749,-2.875,-2.8798,-2.8797,-2.8765,-2.8851,-2.8809,-2.8816,-2.8849,-2.8861,-2.8871,-2.8869,-2.8714,0,0,0,0,0,-2.874,-2.8766,-2.876,-2.8808,-2.8813,-2.8799,-2.8812,-2.8796,-2.8803,-2.8806,-2.8803,-2.8811,-2.8832,-2.8847,-2.8866,-2.8925,-2.8924,-2.8954,-2.8964,-2.8972,-2.8978,-2.9008,-2.9021,-2.8887,-2.8887,-2.8887,0,0,-2.878,-2.878,-2.8798,-2.882,-2.8824,-2.8851,-2.8802,-2.8833,-2.8852,-2.881,-2.8851,-2.885,-2.8856,-2.8907,-2.893,-2.8909,-2.9015,-2.8979,-2.8986,-2.8988,-2.9015,-2.9028,-2.9039,-2.8891,-2.889,-2.8889,0,0,-2.8866,-2.887,-2.891,-2.8915,-2.8921,-2.8912,-2.8921,-2.8921,-2.8918,-2.8959,-2.8928,-2.8951,-2.8989,-2.8995,-2.9002,-2.9091,-2.9066,-2.9098,-2.915,-2.918,-2.919,-2.9199,-2.9229,-2.9241,-2.9104,-2.9105,-2.9105,0,-2.8915,-2.8954,-2.8933,-2.8966,-2.8976,-2.894,-2.898,-2.8986,-2.8998,-2.9006,-2.8982,-2.9029,-2.9031,-2.9082,-2.9104,-2.9112,-2.9122,-2.9097,-2.919,-2.9199,-2.9208,-2.9236,-2.9248,-2.9108,-2.9108,-2.9108,-2.9107,0,-2.9013,-2.9041,-2.9073,-2.9085,-2.9099,-2.9136,-2.912,-2.9136,-2.912,-2.9113,-2.9154,-2.9155,-2.9174,-2.9185,-2.917,-2.9235,-2.9221,-2.9195,-2.9152,-2.9224,-2.9251,-2.9262,-2.9114,-2.9112,-2.9111,-2.911,0,0,-2.9136,-2.9136,-2.9148,-2.9153,-2.9158,-2.9178,-2.9213,-2.9231,-2.9245,-2.9256,-2.9283,-2.9316,-2.9291,-2.93,-2.9285,-2.9311,-2.938,-2.9281,-2.9281,-2.9298,-2.945,-2.9469,-2.9482,-2.9364,-2.9366,-2.9367,-2.9449,0,-2.9219,-2.9278,-2.926,-2.9319,-2.9343,-2.9309,-2.9339,-2.9345,-2.934,-2.936,-2.9353,-2.9376,-2.9343,-2.9348,-2.9372,-2.9366,-2.9409,-2.936,-2.9388,-2.9389,-2.9386,-2.9496,-2.9516,-2.9593,-2.9459,-2.9461,-2.9462,0,-2.9324,-2.9338,-2.9399,-2.9399,-2.9408,-2.9436,-2.945,-2.947,-2.9476,-2.947,-2.948,-2.9459,-2.9493,-2.9451,-2.9496,-2.9463,-2.9474,-2.9473,-2.9475,-2.9476,-2.9429,-2.9498,-2.9617,-2.9628,-2.9478,-2.9477,-2.9476,0,-2.9406,-2.944,-2.9481,-2.9486,-2.9487,-2.9507,-2.9508,-2.9511,-2.9523,-2.9536,-2.9543,-2.9561,-2.957,-2.9583,-2.9567,-2.9539,-2.9614,-2.9572,-2.961,-2.961,-2.9626,-2.9625,-2.9747,-2.9635,-2.9635,-2.9635,-2.9635,0,-2.95,-2.9539,-2.9517,-2.9542,-2.9584,-2.9563,-2.9605,-2.9603,-2.9606,-2.963,-2.9602,-2.9624,-2.9603,-2.9623,-2.9611,-2.965,-2.9655,-2.965,-2.9646,-2.9652,-2.9652,-2.9657,-2.9651,-2.9638,-2.9637,-2.9637,-2.9636,0,-2.9598,-2.9585,-2.9627,-2.9624,-2.9625,-2.9656,-2.9653,-2.9676,-2.9668,-2.9698,-2.9704,-2.9692,-2.9715,-2.9701,-2.9724,-2.9716,-2.9766,-2.9756,-2.9764,-2.9761,-2.9799,-2.9795,-2.9927,-2.9943,-2.9823,-2.9824,-2.9825,0,-2.9658,-2.9687,-2.9687,-2.9701,-2.9704,-2.9726,-2.9738,-2.9719,-2.9732,-2.9741,-2.9762,-2.9783,-2.9798,-2.9836,-2.9829,-2.9847,-2.9835,-2.9881,-2.9838,-2.9842,-2.9835,-2.9833,-2.9835,-2.9889,-2.989,-2.9892,-2.9892,0,-2.9766,-2.9758,-2.9776,-2.9792,-2.9807,-2.9818,-2.9828,-2.9841,-2.9821,-2.9837,-2.986,-2.9872,-2.9896,-2.9916,-2.9931,-2.9932,-2.9909,-2.9906,-2.9916,-2.9921,-2.9924,-2.9922,-2.9786,-2.9903,-2.9902,-2.9901,-2.9901,-2.99,-2.9846,-2.987,-2.9873,-2.9894,-2.9899,-2.9908,-2.9929,-2.9924,-2.9943,-2.996,-2.9947,-2.9974,-2.9979,-2.9996,-3.0,-3.0021,-3.0002,-3.0016,-3.002,-3.0023,-3.0028,-2.9922,-3.0023,-3.0023,-3.0023,-3.0023,-3.0022,0,-2.9952,-2.9952,-2.9972,-2.9985,-3.0001,-2.9979,-2.9988,-3.0002,-3.0026,-3.0033,-3.0048,-3.0074,-3.0093,-3.0088,-3.0106,-3.0123,-3.0113,-3.0128,-3.0126,-3.0126,-3.0044,-3.0033,-3.0136,-3.0136,-3.0136,-3.0136,-3.0136,-3.0136,-3.0008,-3.0047,-3.0039,-3.0079,-3.008,-3.0105,-3.0112,-3.012,-3.0125,-3.0155,-3.0171,-3.0168,-3.0169,-3.0186,-3.0203,-3.0201,-3.0208,-3.0227,-3.0221,-3.0144,-3.0132,-3.0122,-3.0111,-3.0229,-3.0229,-3.0302,-3.0302,-3.0303]},{"header":{"parameterUnit":"m.s-1","parameterCategory":1,"la1":30.2991,"la2":30.254,"lo1":-89.0895,"lo2":-89.0444,"dy":0.0017,"dx":0.0017,"nx":28,"ny":28,"refTime":"2025-06-02T09:00:00:Z","depth":0,"parameterNumber":3,"parameterNumberName":"V-component_of_WINDS"},"data":[0,0,0,0,0,0,0,0,0,0,0,0,0,0,0,0,0,0,0,0,0,0,0,0,0,0,0,0,0,0,0,0,0,0,0,0,0,0,0,0,0,0,0,0,0,0,0,0,0,0,0,0,0,0,0,0,0,0,2.5512,2.5512,0,2.5497,2.5497,2.5497,2.5452,2.5451,2.545,2.5449,2.5435,2.5435,2.5436,0,0,0,0,0,0,0,0,0,0,0,0,0,2.5501,2.5502,2.5512,2.5512,2.5511,2.5497,2.5497,2.5497,2.5452,2.5451,2.545,2.5449,2.5434,2.5435,2.5436,0,0,0,0,0,0,0,0,0,0,0,0,0,2.5498,2.5502,2.5512,2.5488,2.5485,2.5497,2.5497,2.5497,2.5453,2.5451,2.545,2.5448,2.5434,2.5435,2.5436,2.547,0,0,2.5438,2.5439,0,0,0,0,0,0,0,0,2.5498,2.5499,2.5491,2.5489,2.5487,2.5475,2.5488,2.5488,2.5453,2.5465,2.5449,2.5448,2.5449,2.5449,2.5449,2.547,2.5469,2.5438,2.5439,2.5439,2.5439,0,0,0,0,0,0,0,2.5499,2.5499,2.5506,2.5491,2.5488,2.5477,2.5475,2.5488,2.5466,2.5464,2.5461,2.5459,2.5448,2.5449,2.5449,2.5469,2.5438,2.5439,2.5439,2.544,2.5515,2.5517,0,0,0,0,0,0,2.5502,2.5499,2.5506,2.5506,2.5489,2.5479,2.5476,2.548,2.5465,2.5462,2.5461,2.5457,2.5448,2.5448,2.5448,2.5486,2.5439,2.544,2.544,2.5514,2.5515,2.5517,0,0,0,0,0,0,2.5502,2.5503,2.5507,2.5502,2.5501,2.548,2.5485,2.5481,2.5481,2.5463,2.5459,2.5466,2.5447,2.5447,2.5465,2.5485,2.544,2.5441,2.5512,2.5514,2.5516,2.5563,0,0,0,0,0,0,2.5502,2.5504,2.5516,2.5502,2.5502,2.5524,2.5486,2.5482,2.5483,2.5478,2.5466,2.5463,2.5446,2.5464,2.5466,2.5485,2.5442,2.551,2.5513,2.5516,2.5559,2.5566,2.5572,0,0,0,0,0,2.5502,2.5531,2.5517,2.5518,2.5517,2.5525,2.5525,2.5504,2.5485,2.5497,2.5485,2.5463,2.5483,2.5466,2.5468,2.5488,2.5509,2.5512,2.5515,2.5556,2.5565,2.5572,0,0,0,0,0,0,2.5548,2.5528,2.5513,2.5538,2.5534,2.5518,2.5533,2.5514,2.5516,2.5511,2.5486,2.5483,2.5505,2.5498,2.548,2.5519,2.5492,2.5496,2.5523,2.5531,2.5537,2.5537,2.5442,0,0,0,0,0,2.5561,2.5569,2.5552,2.5575,2.5574,2.5554,2.5557,2.5541,2.5536,2.5534,2.5523,2.5518,2.5523,2.5527,2.553,2.5559,2.5555,2.5573,2.558,2.5585,2.5588,2.5602,2.5609,2.5528,2.5528,2.5528,0,0,2.5588,2.5578,2.5585,2.5584,2.5579,2.5588,2.5553,2.5564,2.557,2.5535,2.5551,2.5543,2.5536,2.5559,2.5569,2.5554,2.561,2.559,2.5594,2.5594,2.5606,2.5613,2.562,2.5531,2.553,2.553,0,0,2.5641,2.5635,2.5653,2.5649,2.5641,2.5628,2.5632,2.5619,2.5612,2.5628,2.5602,2.5609,2.5618,2.5614,2.5613,2.5664,2.5644,2.5667,2.57,2.5713,2.5719,2.5725,2.5741,2.5748,2.567,2.567,2.567,0,2.5675,2.5687,2.5665,2.5677,2.5677,2.5647,2.5665,2.5661,2.5656,2.5656,2.564,2.565,2.5644,2.5665,2.5677,2.5678,2.5682,2.5667,2.572,2.5725,2.573,2.5746,2.5752,2.5673,2.5673,2.5672,2.5672,0,2.5729,2.5738,2.5753,2.5748,2.575,2.5765,2.5745,2.575,2.5734,2.5723,2.5738,2.573,2.573,2.5734,2.572,2.5753,2.5744,2.5725,2.5696,2.5741,2.5755,2.5761,2.5677,2.5676,2.5675,2.5674,0,0,2.5809,2.5791,2.5797,2.5794,2.5783,2.5789,2.5803,2.5804,2.5807,2.5805,2.5815,2.5823,2.5805,2.5804,2.5789,2.5801,2.584,2.578,2.5779,2.579,2.5874,2.5887,2.5894,2.5827,2.5828,2.5829,2.5874,0,2.5858,2.588,2.586,2.5886,2.5893,2.5864,2.5876,2.587,2.586,2.5864,2.5853,2.5859,2.5835,2.5834,2.5845,2.5833,2.5856,2.583,2.5835,2.5835,2.5835,2.5902,2.5916,2.5959,2.5879,2.588,2.5881,0,2.5917,2.5916,2.5942,2.5929,2.5931,2.5942,2.594,2.5946,2.5939,2.593,2.5929,2.5911,2.5923,2.5896,2.5912,2.5894,2.5895,2.589,2.5891,2.5889,2.586,2.59,2.5972,2.5978,2.589,2.5889,2.5889,0,2.5971,2.5977,2.5992,2.5991,2.5976,2.5984,2.5979,2.5971,2.5972,2.5971,2.5971,2.5971,2.5971,2.5972,2.5953,2.5936,2.5971,2.5943,2.5963,2.5964,2.597,2.597,2.6042,2.5975,2.5974,2.5974,2.5974,0,2.6026,2.6043,2.6016,2.6026,2.6043,2.6021,2.6039,2.6031,2.6023,2.6031,2.6007,2.6014,2.599,2.5994,2.598,2.5995,2.5995,2.5988,2.5984,2.5989,2.599,2.5988,2.5984,2.5976,2.5976,2.5975,2.5975,0,2.6088,2.6071,2.6086,2.6072,2.6068,2.6082,2.6069,2.6077,2.6065,2.6074,2.6075,2.6056,2.6061,2.6043,2.6044,2.6035,2.6055,2.6047,2.6057,2.6054,2.6074,2.6072,2.6146,2.6154,2.6084,2.6084,2.6085,0,2.6124,2.6136,2.6122,2.6125,2.612,2.6125,2.6126,2.6105,2.6107,2.61,2.6109,2.6111,2.6111,2.6119,2.6105,2.6106,2.6096,2.6122,2.6096,2.6101,2.6094,2.6093,2.6093,2.6127,2.6128,2.6129,2.6129,0,2.6188,2.6179,2.6181,2.618,2.6181,2.618,2.6176,2.618,2.6157,2.6161,2.6164,2.6165,2.6166,2.6168,2.6165,2.6159,2.614,2.6138,2.6142,2.6147,2.6151,2.6147,2.607,2.6136,2.6135,2.6135,2.6134,2.6134,2.6236,2.6245,2.6236,2.6239,2.6234,2.6232,2.6238,2.6227,2.623,2.6228,2.6216,2.6222,2.6214,2.6209,2.6205,2.6209,2.6197,2.6203,2.6205,2.6206,2.6209,2.6153,2.6209,2.6209,2.6208,2.6208,2.6208,0,2.6297,2.629,2.6293,2.6289,2.6291,2.6274,2.6269,2.6272,2.6277,2.6272,2.6272,2.6276,2.6278,2.6265,2.6264,2.627,2.6261,2.627,2.6269,2.6267,2.6221,2.6216,2.6278,2.6278,2.6277,2.6277,2.6277,2.6277,2.6329,2.6342,2.6332,2.6343,2.6336,2.6341,2.6339,2.6337,2.6332,2.6337,2.6338,2.633,2.6321,2.632,2.632,2.6316,2.6317,2.6329,2.6322,2.6278,2.6271,2.6264,2.626,2.6329,2.6329,2.6368,2.6368,2.6368]}]]